[Date Prev][Date Next][Thread Prev][Thread Next] - [Date Index][Thread Index][Author Index]
2 line ISS Keps 6-9
- Subject: [sarex] 2 line ISS Keps 6-9
- From: "Dr Dave Larsen PhD" <doc@xxxxxxxxxxx>
- Date: Sat, 9 Jun 2001 03:40:05 -0700
- Disposition-Notification-To: "Dr Dave Larsen PhD" <doc@volcano.net>
ISS
1 25544U 98067A 01160.17300672 .00032617 00000-0 37647-3 0 624
2 25544 51.5701 129.1505 0017289 138.6825 312.6831 15.61431031145823
----
Via the sarex mailing list at AMSAT.ORG courtesy of AMSAT-NA.
To unsubscribe, send "unsubscribe sarex" to Majordomo@amsat.org
AMSAT Home